Sydney, Australia

10:18 AM AEST on April 30, 2017 (GMT +1000)
Kingsford Smith International

Weather History for YSSY - May, 2013

Change the Weather History Date:

Thursday, May 23, 2013

  Actual Average Record
Temperature  
Mean Temperature 58 °F -  
Max Temperature 66 °F 64 °F 81 °F (2016)
Min Temperature 51 °F 48 °F 46 °F (2000)
Degree Days  
Heating Degree Days 6    
Growing Degree Days 8 (Base 50)    
Moisture  
Dew Point 52 °F    
Average Humidity 77    
Maximum Humidity 95    
Minimum Humidity 44    
Precipitation  
Precipitation 0.20 in 0.16 in - ()
Sea Level Pressure  
Sea Level Pressure 29.93 in    
Wind  
Wind Speed 13 mph ()    
Max Wind Speed 29 mph    
Max Gust Speed 33 mph    
Visibility 6.0 miles    
Events Rain , Thunderstorm    
Averages and records for this station are not official NWS values.
T = Trace of Precipitation, MM = Missing Value Source: Averaged Metar Reports

Daily Weather History Graph

Daily Weather History Graph

Search for Another Location

Airport or City:

Trip Planner

Search our weather history database for the weather conditions in past years. The results will help you decide how hot, cold, wet, or windy it might be!

Date:

Astronomy

May. 23, 2013 Rise Set
Actual Time 6:46 AM AEST 4:57 PM AEST
Civil Twilight 6:19 AM AEST 5:24 PM AEST
Nautical Twilight 5:48 AM AEST 5:55 PM AEST
Astronomical Twilight 5:18 AM AEST 6:25 PM AEST
Moon 3:22 PM AEST (5/23) 4:10 AM AEST (5/23)
Length of Visible Light 11h 05m
Length of Day
10h 11m
Waxing Gibbous, 94% of the Moon is Illuminated
May 23
Waxing Gibbous
May 25
Full
Jun 1
Last Quarter
Jun 9
New
Jun 17
First Quarter

Hourly Weather History & Observations

Time (AEST) Temp. Dew Point Humidity Pressure Visibility Wind Dir Wind Speed Gust Speed Precip Events Conditions
12:00 AM 51 °F 50 °F 95% 29.87 in 7 mi West 12.7 mph - - Rain Light Rain
12:00 AM 51.8 °F 50.0 °F 94% 29.86 in 3.7 mi West 12.7 mph - N/A Rain Light Rain
12:30 AM 51.8 °F 50.0 °F 94% 29.86 in 5.6 mi West 8.1 mph - N/A Rain Light Rain
1:00 AM 51 °F 50 °F 94% 29.86 in - NW 8.1 mph - -  
1:00 AM 51.8 °F 50.0 °F 94% 29.86 in 5.6 mi NW 8.1 mph - N/A Rain Light Rain
1:30 AM 51.8 °F 50.0 °F 94% 29.86 in 5.6 mi West 6.9 mph - N/A Rain Light Rain
2:00 AM 51.8 °F 50.0 °F 94% 29.86 in 6.2 mi WSW 9.2 mph - N/A Rain Light Rain
2:30 AM 51.8 °F 50.0 °F 94% 29.83 in 6.2 mi WSW 11.5 mph - N/A   Mostly Cloudy
3:00 AM 53 °F 50 °F 87% 29.85 in 9 mi WSW 11.5 mph - - Rain Light Rain
3:00 AM 51.8 °F 50.0 °F 94% 29.83 in 6.2 mi WSW 11.5 mph - N/A Rain Light Rain
3:30 AM 53.6 °F 50.0 °F 88% 29.83 in 5.6 mi SW 13.8 mph - N/A Rain Light Rain
4:00 AM 53 °F 50 °F 86% 29.86 in - WSW 11.5 mph - -  
4:00 AM 53.6 °F 50.0 °F 88% 29.86 in 6.2 mi WSW 11.5 mph - N/A Rain Light Rain
4:30 AM 53.6 °F 51.8 °F 94% 29.86 in 5.6 mi SW 12.7 mph - N/A Rain Light Rain
5:00 AM 53.6 °F 51.8 °F 94% 29.86 in 5.0 mi WSW 10.4 mph - N/A Rain Light Rain Showers
5:20 AM 53.6 °F 51.8 °F 94% 29.86 in 4.3 mi SSW 13.8 mph - N/A Rain Light Rain Showers
5:30 AM 55.4 °F 51.8 °F 88% 29.86 in 5.0 mi East 6.9 mph - N/A Rain Light Rain Showers
6:00 AM 56 °F 52 °F 82% 29.88 in 7 mi SSE 15.0 mph - - Rain Light Rain
6:00 AM 57.2 °F 51.8 °F 82% 29.86 in 6.2 mi SSE 15.0 mph - N/A Rain Light Rain
6:30 AM 59.0 °F 53.6 °F 82% 29.89 in 6.2 mi South 15.0 mph - N/A   Mostly Cloudy
7:00 AM 58 °F 53 °F 78% 29.91 in - SSE 12.7 mph - -  
7:00 AM 57.2 °F 53.6 °F 88% 29.89 in 6.2 mi SSE 12.7 mph - N/A Rain Light Rain Showers
7:30 AM 59.0 °F 51.8 °F 77% 29.89 in 6.2 mi SE 12.7 mph - N/A Rain Light Rain Showers
8:00 AM 59.0 °F 53.6 °F 82% 29.92 in 5.0 mi SE 13.8 mph - N/A Rain Light Rain Showers
8:30 AM 59.0 °F 53.6 °F 82% 29.92 in 6.2 mi SSE 15.0 mph - N/A Rain Light Rain Showers
9:00 AM 60 °F 54 °F 75% 29.94 in 9 mi SE 13.8 mph - - Rain Light Rain Showers
9:00 AM 59.0 °F 53.6 °F 82% 29.92 in 6.2 mi SE 13.8 mph - N/A Rain Light Rain Showers
9:30 AM 60.8 °F 53.6 °F 77% 29.92 in 6.2 mi East 6.9 mph - N/A   Mostly Cloudy
10:00 AM 60 °F 55 °F 77% 29.95 in - SSW 4.6 mph - -  
10:00 AM 60.8 °F 55.4 °F 82% 29.95 in 6.2 mi SSW 4.6 mph - N/A Rain Light Rain Showers
10:30 AM 59.0 °F 55.4 °F 88% 29.92 in 6.2 mi WSW 11.5 mph - N/A   Mostly Cloudy
11:00 AM 60.8 °F 55.4 °F 82% 29.95 in 6.2 mi NNE 6.9 mph - N/A   Mostly Cloudy
11:30 AM 60.8 °F 55.4 °F 82% 29.92 in 6.2 mi North 8.1 mph - N/A   Mostly Cloudy
12:00 PM 59 °F 53 °F 75% 29.94 in 6 mi SSW 11.5 mph - - Rain Light Rain Showers
12:00 PM 59.0 °F 53.6 °F 82% 29.92 in 3.7 mi SSW 11.5 mph - N/A Rain Light Rain Showers
12:15 PM 59.0 °F 53.6 °F 82% 29.92 in 3.1 mi SE 19.6 mph 33.4 mph N/A Rain , Thunderstorm Light Rain Showers
12:30 PM 60.8 °F 55.4 °F 82% 29.92 in 4.3 mi SE 19.6 mph - N/A Rain , Thunderstorm Light Rain Showers
1:00 PM 61 °F 52 °F 64% 29.91 in - SSE 21.9 mph - -  
1:00 PM 60.8 °F 51.8 °F 72% 29.89 in 6.2 mi SSE 21.9 mph - N/A   Mostly Cloudy
1:30 PM 62.6 °F 51.8 °F 68% 29.89 in 6.2 mi SSE 19.6 mph - N/A   Mostly Cloudy
2:00 PM 64.4 °F 51.8 °F 64% 29.89 in 6.2 mi SSE 19.6 mph - N/A   Mostly Cloudy
2:30 PM 64.4 °F 50.0 °F 59% 29.89 in 6.2 mi SE 23.0 mph - N/A   Mostly Cloudy
3:00 PM 66 °F 49 °F 44% 29.91 in 12 mi SE 21.9 mph - -   Partly Cloudy
3:00 PM 66.2 °F 50.0 °F 56% 29.89 in 6.2 mi SE 21.9 mph - N/A   Scattered Clouds
3:30 PM 64.4 °F 48.2 °F 56% 29.92 in 6.2 mi SE 21.9 mph - N/A   Scattered Clouds
4:00 PM 65 °F 52 °F 52% 29.93 in - SE 24.2 mph - -  
4:00 PM 64.4 °F 51.8 °F 64% 29.92 in 6.2 mi SE 24.2 mph - N/A   Mostly Cloudy
4:30 PM 64.4 °F 50.0 °F 59% 29.92 in 6.2 mi SE 25.3 mph - N/A   Scattered Clouds
5:00 PM 64.4 °F 48.2 °F 56% 29.95 in 6.2 mi SE 23.0 mph - N/A   Scattered Clouds
5:30 PM 64.4 °F 46.4 °F 52% 29.95 in 6.2 mi ESE 21.9 mph - N/A   Partly Cloudy
6:00 PM 64 °F 50 °F 50% 29.97 in 12 mi SE 20.7 mph - -   Partly Cloudy
6:00 PM 64.4 °F 50.0 °F 59% 29.95 in 6.2 mi SE 20.7 mph - N/A   Scattered Clouds
6:30 PM 64.4 °F 48.2 °F 56% 29.98 in 6.2 mi SE 21.9 mph - N/A   Partly Cloudy
7:00 PM 64 °F 49 °F 48% 30.00 in - SE 21.9 mph - -  
7:00 PM 64.4 °F 50.0 °F 59% 29.98 in 6.2 mi SE 21.9 mph - N/A   Partly Cloudy
7:30 PM 64.4 °F 50.0 °F 59% 30.01 in 6.2 mi SE 18.4 mph - N/A   Scattered Clouds
7:55 PM 59.0 °F 51.8 °F 77% 30.01 in 6.2 mi SSW 17.3 mph 28.8 mph N/A   Mostly Cloudy
8:00 PM 59.0 °F 51.8 °F 77% 30.01 in 6.2 mi SSW 19.6 mph - N/A Thunderstorm Mostly Cloudy
8:11 PM 59.0 °F 53.6 °F 82% 30.01 in 6.2 mi SE 17.3 mph - N/A Rain , Thunderstorm Light Thunderstorms and Rain
8:13 PM 59.0 °F 53.6 °F 82% 30.01 in 6.2 mi SE 18.4 mph 31.1 mph N/A Rain , Thunderstorm Light Thunderstorms and Rain
8:29 PM 57.2 °F 48.2 °F 72% 30.01 in 3.1 mi SE 28.8 mph - N/A Rain , Thunderstorm Thunderstorms and Rain
8:30 PM 57.2 °F 50.0 °F 77% 30.01 in 3.1 mi SE 27.6 mph - N/A Rain , Thunderstorm Thunderstorms and Rain
8:47 PM 57.2 °F 53.6 °F 88% 30.01 in 6.2 mi South 18.4 mph - N/A Rain Rain Showers
9:00 PM 57 °F 52 °F 76% 30.04 in 7 mi South 21.9 mph - - Rain Heavy Rain
9:00 PM 57.2 °F 51.8 °F 82% 30.04 in 3.7 mi South 21.9 mph - N/A Rain Rain Showers
9:30 PM 57.2 °F 51.8 °F 82% 30.04 in 4.3 mi SSW 13.8 mph - N/A Rain Rain Showers
10:00 PM 58 °F 52 °F 76% 30.05 in - SSW 13.8 mph - -  
10:00 PM 57.2 °F 51.8 °F 82% 30.04 in 5.6 mi SSW 13.8 mph - N/A Rain , Thunderstorm Light Rain Showers
10:30 PM 57.2 °F 51.8 °F 82% 30.04 in 6.2 mi SSW 11.5 mph - N/A   Mostly Cloudy
11:00 PM 57.2 °F 51.8 °F 82% 30.04 in 6.2 mi SSW 10.4 mph - N/A   Scattered Clouds
11:30 PM 59.0 °F 53.6 °F 82% 30.04 in 6.2 mi SSE 13.8 mph - N/A   Partly Cloudy